Time,TemperatureF,DewpointF,PressureIn,WindDirection,WindDirectionDegrees,WindSpeedMPH,WindSpeedGustMPH,Humidity,HourlyPrecipIn,Conditions,Clouds,dailyrainin,SoftwareType,DateUTC
2013-04-19 00:01:00,50.9,43.3,29.66,SSW,203,2.0,6.9,75,0.00,,,0.00,WUHU216HW,2013-04-19 04:01:00,
2013-04-19 00:02:00,50.9,43.7,29.66,West,270,2.7,6.9,76,0.00,,,0.00,WUHU216HW,2013-04-19 04:02:00,
2013-04-19 00:04:00,50.9,43.7,29.66,SW,225,2.5,6.9,76,0.00,,,0.00,WUHU216HW,2013-04-19 04:04:00,
2013-04-19 00:09:00,50.9,43.3,29.66,SSW,203,2.0,5.1,75,0.00,,,0.00,WUHU216HW,2013-04-19 04:09:00,
2013-04-19 00:14:00,50.9,43.7,29.66,SSW,203,2.9,5.1,76,0.00,,,0.00,WUHU216HW,2013-04-19 04:14:00,
2013-04-19 00:20:00,50.9,43.3,29.66,SSW,203,1.8,4.0,75,0.00,,,0.00,WUHU216HW,2013-04-19 04:20:00,
2013-04-19 00:25:00,50.9,43.3,29.66,SW,225,1.6,2.9,75,0.00,,,0.00,WUHU216HW,2013-04-19 04:25:00,
2013-04-19 00:30:00,50.9,43.3,29.66,SSW,203,0.9,2.9,75,0.00,,,0.00,WUHU216HW,2013-04-19 04:30:00,
2013-04-19 00:35:00,50.9,43.3,29.65,SSW,203,3.8,4.3,75,0.00,,,0.00,WUHU216HW,2013-04-19 04:35:00,
2013-04-19 00:40:00,50.9,43.3,29.65,SSE,158,2.0,4.3,75,0.00,,,0.00,WUHU216HW,2013-04-19 04:40:00,
2013-04-19 00:45:00,50.9,43.7,29.65,SW,225,2.2,3.8,76,0.00,,,0.00,WUHU216HW,2013-04-19 04:45:00,
2013-04-19 00:50:00,50.9,43.7,29.65,SSW,203,1.8,5.1,76,0.00,,,0.00,WUHU216HW,2013-04-19 04:50:00,
2013-04-19 00:55:00,50.9,44.0,29.65,SSW,203,1.8,5.1,77,0.00,,,0.00,WUHU216HW,2013-04-19 04:55:00,
2013-04-19 01:00:00,50.9,44.0,29.65,SW,225,0.9,4.0,77,0.00,,,0.00,WUHU216HW,2013-04-19 05:00:00,
2013-04-19 01:05:00,50.9,44.3,29.64,SSW,203,2.0,4.3,78,0.00,,,0.00,WUHU216HW,2013-04-19 05:05:00,
2013-04-19 01:10:00,50.9,44.0,29.64,SW,225,1.1,4.3,77,0.00,,,0.00,WUHU216HW,2013-04-19 05:10:00,
2013-04-19 01:16:00,50.9,44.0,29.63,SSE,158,1.8,3.6,77,0.00,,,0.00,WUHU216HW,2013-04-19 05:16:00,
2013-04-19 01:21:00,50.9,44.0,29.63,South,180,4.0,4.7,77,0.00,,,0.00,WUHU216HW,2013-04-19 05:21:00,
2013-04-19 01:26:00,50.9,44.3,29.63,SSW,203,0.9,4.7,78,0.00,,,0.00,WUHU216HW,2013-04-19 05:26:00,
2013-04-19 01:31:00,50.9,44.3,29.62,SSW,203,1.8,5.4,78,0.00,,,0.00,WUHU216HW,2013-04-19 05:31:00,
2013-04-19 01:36:00,51.1,45.2,29.62,SW,225,2.7,7.6,80,0.00,,,0.00,WUHU216HW,2013-04-19 05:36:00,
2013-04-19 01:41:00,51.1,45.2,29.61,SE,135,3.1,7.6,80,0.00,,,0.00,WUHU216HW,2013-04-19 05:41:00,
2013-04-19 01:46:00,50.9,45.0,29.61,SW,225,0.4,6.7,80,0.00,,,0.00,WUHU216HW,2013-04-19 05:46:00,
2013-04-19 01:51:00,51.1,45.5,29.61,SSW,203,2.5,4.5,81,0.00,,,0.00,WUHU216HW,2013-04-19 05:51:00,
2013-04-19 01:56:00,51.1,45.8,29.60,SW,225,3.4,5.8,82,0.00,,,0.00,WUHU216HW,2013-04-19 05:56:00,
2013-04-19 02:02:00,51.1,46.1,29.59,WSW,248,1.6,6.3,83,0.00,,,0.00,WUHU216HW,2013-04-19 06:02:00,
2013-04-19 02:07:00,51.1,45.8,29.59,SSW,203,3.4,6.3,82,0.00,,,0.00,WUHU216HW,2013-04-19 06:07:00,
2013-04-19 02:12:00,51.1,46.5,29.58,South,180,2.7,6.3,84,0.00,,,0.00,WUHU216HW,2013-04-19 06:12:00,
2013-04-19 02:17:00,51.1,46.5,29.58,SSW,203,3.6,6.9,84,0.00,,,0.00,WUHU216HW,2013-04-19 06:17:00,
2013-04-19 02:22:00,51.1,47.0,29.58,SSW,203,4.3,6.9,86,0.00,,,0.00,WUHU216HW,2013-04-19 06:22:00,
2013-04-19 02:27:00,51.1,47.0,29.58,SW,225,1.6,6.9,86,0.00,,,0.00,WUHU216HW,2013-04-19 06:27:00,
2013-04-19 02:32:00,51.1,47.0,29.58,SSW,203,7.8,7.8,86,0.00,,,0.00,WUHU216HW,2013-04-19 06:32:00,
2013-04-19 02:38:00,51.1,47.0,29.57,SW,225,1.1,9.8,86,0.00,,,0.00,WUHU216HW,2013-04-19 06:38:00,
2013-04-19 02:43:00,51.1,47.4,29.57,SSW,203,3.1,9.8,87,0.00,,,0.00,WUHU216HW,2013-04-19 06:43:00,
2013-04-19 02:48:00,51.1,47.4,29.57,SW,225,1.6,9.2,87,0.00,,,0.00,WUHU216HW,2013-04-19 06:48:00,
2013-04-19 02:53:00,51.1,47.0,29.57,SW,225,0.7,9.2,86,0.00,,,0.00,WUHU216HW,2013-04-19 06:53:00,
2013-04-19 02:58:00,51.1,47.0,29.57,SW,225,1.1,4.5,86,0.00,,,0.00,WUHU216HW,2013-04-19 06:58:00,
2013-04-19 03:03:00,51.1,47.4,29.57,SSW,203,0.4,6.0,87,0.00,,,0.00,WUHU216HW,2013-04-19 07:03:00,
2013-04-19 03:08:00,51.1,47.4,29.57,WSW,248,2.5,6.0,87,0.00,,,0.00,WUHU216HW,2013-04-19 07:08:00,
2013-04-19 03:14:00,51.1,47.4,29.58,SW,225,1.1,5.1,87,0.00,,,0.00,WUHU216HW,2013-04-19 07:14:00,
2013-04-19 03:19:00,51.1,47.4,29.57,South,180,3.4,4.0,87,0.00,,,0.00,WUHU216HW,2013-04-19 07:19:00,
2013-04-19 03:24:00,51.1,47.0,29.57,SSE,158,0.0,4.7,86,0.00,,,0.00,WUHU216HW,2013-04-19 07:24:00,
2013-04-19 03:29:00,51.1,47.4,29.57,SW,225,1.3,4.7,87,0.00,,,0.00,WUHU216HW,2013-04-19 07:29:00,
2013-04-19 03:34:00,51.1,47.0,29.57,South,180,1.6,1.6,86,0.00,,,0.00,WUHU216HW,2013-04-19 07:34:00,
2013-04-19 03:39:00,51.1,47.6,29.57,SW,225,3.4,3.4,88,0.00,,,0.00,WUHU216HW,2013-04-19 07:39:00,
2013-04-19 03:44:00,51.1,47.4,29.56,SW,225,0.0,3.4,87,0.00,,,0.00,WUHU216HW,2013-04-19 07:44:00,
2013-04-19 03:49:00,51.1,47.4,29.56,SW,225,0.9,2.9,87,0.00,,,0.00,WUHU216HW,2013-04-19 07:49:00,
2013-04-19 03:54:00,51.1,47.4,29.56,SSW,203,1.8,2.9,87,0.00,,,0.00,WUHU216HW,2013-04-19 07:54:00,
2013-04-19 03:59:00,51.1,47.6,29.56,SW,225,0.4,2.9,88,0.00,,,0.00,WUHU216HW,2013-04-19 07:59:00,
2013-04-19 04:05:00,51.1,47.6,29.56,South,180,0.4,4.0,88,0.00,,,0.00,WUHU216HW,2013-04-19 08:05:00,
2013-04-19 04:10:00,51.1,47.6,29.56,SSW,203,2.0,4.0,88,0.00,,,0.00,WUHU216HW,2013-04-19 08:10:00,
2013-04-19 04:15:00,51.3,47.8,29.56,SSW,203,0.4,3.4,88,0.00,,,0.00,WUHU216HW,2013-04-19 08:15:00,
2013-04-19 04:20:00,51.1,47.6,29.56,SSW,203,1.1,3.4,88,0.00,,,0.00,WUHU216HW,2013-04-19 08:20:00,
2013-04-19 04:25:00,51.3,47.8,29.56,SSW,203,1.1,3.1,88,0.00,,,0.00,WUHU216HW,2013-04-19 08:25:00,
2013-04-19 04:30:00,51.3,47.8,29.55,SSE,158,1.1,3.8,88,0.00,,,0.00,WUHU216HW,2013-04-19 08:30:00,
2013-04-19 04:35:00,51.3,47.8,29.55,SSW,203,1.1,3.8,88,0.00,,,0.00,WUHU216HW,2013-04-19 08:35:00,
2013-04-19 04:40:00,51.3,47.8,29.55,SSW,203,0.0,2.7,88,0.00,,,0.00,WUHU216HW,2013-04-19 08:40:00,
2013-04-19 04:46:00,51.1,47.6,29.54,South,180,0.4,2.0,88,0.00,,,0.00,WUHU216HW,2013-04-19 08:46:00,
2013-04-19 04:51:00,51.3,48.2,29.54,SSE,158,0.4,2.0,89,0.00,,,0.00,WUHU216HW,2013-04-19 08:51:00,
2013-04-19 04:56:00,51.3,48.2,29.54,South,180,1.6,1.8,89,0.00,,,0.00,WUHU216HW,2013-04-19 08:56:00,
2013-04-19 05:01:00,51.3,48.2,29.53,SSE,158,1.3,1.8,89,0.00,,,0.00,WUHU216HW,2013-04-19 09:01:00,
2013-04-19 05:06:00,51.3,48.2,29.53,SSE,158,0.0,2.7,89,0.00,,,0.00,WUHU216HW,2013-04-19 09:06:00,
2013-04-19 05:11:00,51.5,48.3,29.53,SSW,203,1.3,2.7,89,0.00,,,0.00,WUHU216HW,2013-04-19 09:11:00,
2013-04-19 05:16:00,51.5,48.3,29.52,South,180,0.4,1.8,89,0.00,,,0.00,WUHU216HW,2013-04-19 09:16:00,
2013-04-19 05:21:00,51.5,48.3,29.52,SSE,158,1.8,2.5,89,0.00,,,0.00,WUHU216HW,2013-04-19 09:21:00,
2013-04-19 05:26:00,51.5,48.3,29.51,SSW,203,1.1,5.4,89,0.00,,,0.00,WUHU216HW,2013-04-19 09:26:00,
2013-04-19 05:32:00,51.5,48.3,29.51,South,180,2.7,5.4,89,0.00,,,0.00,WUHU216HW,2013-04-19 09:32:00,
2013-04-19 05:37:00,51.7,48.5,29.51,SW,225,0.9,4.5,89,0.00,,,0.00,WUHU216HW,2013-04-19 09:37:00,
2013-04-19 05:42:00,51.8,48.7,29.51,South,180,3.4,4.5,89,0.00,,,0.00,WUHU216HW,2013-04-19 09:42:00,
2013-04-19 05:47:00,51.8,49.2,29.51,SSW,203,0.9,5.4,91,0.00,,,0.00,WUHU216HW,2013-04-19 09:47:00,
2013-04-19 05:52:00,52.2,49.6,29.51,SW,225,0.0,5.4,91,0.00,,,0.00,WUHU216HW,2013-04-19 09:52:00,
2013-04-19 05:57:00,52.2,49.3,29.51,SW,225,0.9,4.0,90,0.00,,,0.00,WUHU216HW,2013-04-19 09:57:00,
2013-04-19 06:02:00,52.4,49.5,29.51,SSW,203,1.8,2.9,90,0.00,,,0.00,WUHU216HW,2013-04-19 10:02:00,
2013-04-19 06:07:00,52.6,50.0,29.52,SW,225,3.4,3.6,91,0.00,,,0.00,WUHU216HW,2013-04-19 10:07:00,
2013-04-19 06:12:00,52.9,50.6,29.52,South,180,1.6,3.6,92,0.00,,,0.00,WUHU216HW,2013-04-19 10:12:00,
2013-04-19 06:17:00,53.1,50.8,29.52,SW,225,2.2,3.1,92,0.00,,,0.00,WUHU216HW,2013-04-19 10:17:00,
2013-04-19 06:23:00,53.3,50.9,29.51,SSW,203,1.3,3.6,92,0.00,,,0.00,WUHU216HW,2013-04-19 10:23:00,
2013-04-19 06:28:00,53.6,51.3,29.51,SSE,158,0.4,4.7,92,0.00,,,0.00,WUHU216HW,2013-04-19 10:28:00,
2013-04-19 06:33:00,53.8,51.5,29.51,SSW,203,2.5,5.1,92,0.00,,,0.00,WUHU216HW,2013-04-19 10:33:00,
2013-04-19 06:38:00,54.2,51.8,29.51,SSW,203,4.0,6.9,92,0.00,,,0.00,WUHU216HW,2013-04-19 10:38:00,
2013-04-19 06:43:00,54.4,52.0,29.51,SSE,158,3.1,6.9,92,0.00,,,0.00,WUHU216HW,2013-04-19 10:43:00,
2013-04-19 06:48:00,54.7,52.4,29.51,SSE,158,3.4,5.4,92,0.00,,,0.00,WUHU216HW,2013-04-19 10:48:00,
2013-04-19 06:53:00,55.1,53.1,29.51,SSW,203,3.6,4.3,93,0.00,,,0.00,WUHU216HW,2013-04-19 10:53:00,
2013-04-19 06:58:00,55.4,53.5,29.51,South,180,2.5,6.0,93,0.00,,,0.00,WUHU216HW,2013-04-19 10:58:00,
2013-04-19 07:03:00,56.2,54.5,29.51,SW,225,6.3,6.9,94,0.00,,,0.00,WUHU216HW,2013-04-19 11:03:00,
2013-04-19 07:08:00,56.9,54.9,29.50,WSW,248,2.5,6.9,93,0.00,,,0.00,WUHU216HW,2013-04-19 11:08:00,
2013-04-19 07:13:00,57.8,55.4,29.51,SW,225,3.4,6.3,92,0.00,,,0.00,WUHU216HW,2013-04-19 11:13:00,
2013-04-19 07:18:00,58.5,55.6,29.51,South,180,4.5,12.1,90,0.00,,,0.00,WUHU216HW,2013-04-19 11:18:00,
2013-04-19 07:24:00,58.9,55.6,29.51,WSW,248,3.4,12.1,89,0.00,,,0.00,WUHU216HW,2013-04-19 11:24:00,
2013-04-19 07:29:00,59.4,55.9,29.51,WSW,248,6.3,6.9,88,0.00,,,0.00,WUHU216HW,2013-04-19 11:29:00,
2013-04-19 07:34:00,59.4,55.5,29.50,SSW,203,2.5,10.3,87,0.00,,,0.00,WUHU216HW,2013-04-19 11:34:00,
2013-04-19 07:39:00,59.8,55.9,29.50,South,180,6.9,10.3,87,0.00,,,0.00,WUHU216HW,2013-04-19 11:39:00,
2013-04-19 07:44:00,60.3,56.2,29.50,WSW,248,2.2,6.9,86,0.00,,,0.00,WUHU216HW,2013-04-19 11:44:00,
2013-04-19 07:49:00,60.7,56.2,29.50,South,180,4.0,9.2,85,0.00,,,0.00,WUHU216HW,2013-04-19 11:49:00,
2013-04-19 07:54:00,61.0,55.9,29.49,West,270,3.4,12.8,83,0.00,,,0.00,WUHU216HW,2013-04-19 11:54:00,
2013-04-19 07:59:00,61.6,56.3,29.49,WNW,293,2.9,12.8,83,0.00,,,0.00,WUHU216HW,2013-04-19 11:59:00,
2013-04-19 08:05:00,61.9,56.3,29.49,SW,225,3.1,6.3,82,0.00,,,0.00,WUHU216HW,2013-04-19 12:05:00,
2013-04-19 08:10:00,62.5,56.9,29.49,SSW,203,3.4,6.5,82,0.00,,,0.00,WUHU216HW,2013-04-19 12:10:00,
2013-04-19 08:15:00,63.4,57.1,29.49,WSW,248,3.6,6.9,80,0.00,,,0.00,WUHU216HW,2013-04-19 12:15:00,
2013-04-19 08:20:00,64.1,57.8,29.50,WSW,248,5.8,10.5,80,0.00,,,0.00,WUHU216HW,2013-04-19 12:20:00,
2013-04-19 08:25:00,64.6,57.6,29.50,SSE,158,4.0,10.5,78,0.00,,,0.00,WUHU216HW,2013-04-19 12:25:00,
2013-04-19 08:30:00,63.9,56.9,29.50,WSW,248,4.7,8.9,78,0.00,,,0.00,WUHU216HW,2013-04-19 12:30:00,
2013-04-19 08:35:00,63.4,56.7,29.50,West,270,3.6,8.9,79,0.00,,,0.00,WUHU216HW,2013-04-19 12:35:00,
2013-04-19 08:40:00,63.5,56.9,29.49,SSE,158,6.0,7.8,79,0.00,,,0.00,WUHU216HW,2013-04-19 12:40:00,
2013-04-19 08:45:00,64.1,57.8,29.50,WNW,293,3.8,7.8,80,0.00,,,0.00,WUHU216HW,2013-04-19 12:45:00,
2013-04-19 08:50:00,64.1,57.4,29.49,SSW,203,3.6,6.0,79,0.00,,,0.00,WUHU216HW,2013-04-19 12:50:00,
2013-04-19 08:56:00,63.9,57.2,29.49,SSW,203,4.0,6.7,79,0.00,,,0.00,WUHU216HW,2013-04-19 12:56:00,
2013-04-19 09:01:00,63.7,57.4,29.49,WSW,248,2.9,10.5,80,0.00,,,0.00,WUHU216HW,2013-04-19 13:01:00,
2013-04-19 09:06:00,64.1,57.8,29.49,South,180,2.7,10.5,80,0.00,,,0.00,WUHU216HW,2013-04-19 13:06:00,
2013-04-19 09:11:00,65.2,58.5,29.49,SW,225,2.7,8.7,79,0.00,,,0.00,WUHU216HW,2013-04-19 13:11:00,
2013-04-19 09:16:00,65.7,57.9,29.49,South,180,7.4,8.5,76,0.00,,,0.00,WUHU216HW,2013-04-19 13:16:00,
2013-04-19 09:21:00,65.9,58.1,29.48,SSW,203,5.4,9.2,76,0.00,,,0.00,WUHU216HW,2013-04-19 13:21:00,
2013-04-19 09:26:00,65.7,58.3,29.48,SW,225,2.2,11.0,77,0.00,,,0.00,WUHU216HW,2013-04-19 13:26:00,
2013-04-19 09:31:00,66.2,58.4,29.47,SE,135,9.2,11.0,76,0.00,,,0.00,WUHU216HW,2013-04-19 13:31:00,
2013-04-19 09:37:00,66.8,58.6,29.48,SW,225,2.9,9.2,75,0.00,,,0.00,WUHU216HW,2013-04-19 13:37:00,
2013-04-19 09:42:00,67.0,58.4,29.47,West,270,4.0,11.9,74,0.00,,,0.00,WUHU216HW,2013-04-19 13:42:00,
2013-04-19 09:47:00,67.5,59.0,29.47,SSW,203,2.7,11.9,74,0.00,,,0.00,WUHU216HW,2013-04-19 13:47:00,
2013-04-19 09:52:00,68.0,59.1,29.47,West,270,1.8,11.0,73,0.00,,,0.00,WUHU216HW,2013-04-19 13:52:00,
2013-04-19 09:57:00,67.7,58.8,29.47,SSW,203,2.9,11.0,73,0.00,,,0.00,WUHU216HW,2013-04-19 13:57:00,
2013-04-19 10:02:00,67.5,58.6,29.47,SW,225,2.9,8.1,73,0.00,,,0.00,WUHU216HW,2013-04-19 14:02:00,
2013-04-19 10:07:00,67.5,58.6,29.47,WSW,248,4.0,8.1,73,0.00,,,0.00,WUHU216HW,2013-04-19 14:07:00,
2013-04-19 10:12:00,67.3,58.4,29.47,WSW,248,2.9,12.1,73,0.00,,,0.00,WUHU216HW,2013-04-19 14:12:00,
2013-04-19 10:17:00,67.0,58.4,29.47,SSW,203,9.2,12.1,74,0.00,,,0.00,WUHU216HW,2013-04-19 14:17:00,
2013-04-19 10:23:00,66.6,58.1,29.47,SSW,203,6.3,9.8,74,0.00,,,0.00,WUHU216HW,2013-04-19 14:23:00,
2013-04-19 10:28:00,67.3,59.1,29.47,WSW,248,2.2,9.2,75,0.00,,,0.00,WUHU216HW,2013-04-19 14:28:00,
2013-04-19 10:33:00,68.4,59.4,29.47,SSW,203,4.0,10.1,73,0.00,,,0.00,WUHU216HW,2013-04-19 14:33:00,
2013-04-19 10:38:00,68.8,59.0,29.46,SSW,203,4.0,12.5,71,0.00,,,0.00,WUHU216HW,2013-04-19 14:38:00,
2013-04-19 10:43:00,68.9,58.8,29.46,South,180,5.4,13.4,70,0.00,,,0.00,WUHU216HW,2013-04-19 14:43:00,
2013-04-19 10:48:00,69.1,59.0,29.46,SSW,203,10.1,13.4,70,0.00,,,0.00,WUHU216HW,2013-04-19 14:48:00,
2013-04-19 10:53:00,69.1,59.0,29.46,WSW,248,5.4,10.1,70,0.00,,,0.00,WUHU216HW,2013-04-19 14:53:00,
2013-04-19 10:58:00,69.3,59.1,29.45,SW,225,5.4,10.1,70,0.00,,,0.00,WUHU216HW,2013-04-19 14:58:00,
2013-04-19 11:03:00,69.8,59.1,29.45,SW,225,4.9,9.6,69,0.00,,,0.00,WUHU216HW,2013-04-19 15:03:00,
2013-04-19 11:08:00,70.2,59.1,29.45,SSW,203,8.9,10.5,68,0.00,,,0.00,WUHU216HW,2013-04-19 15:08:00,
2013-04-19 11:13:00,70.4,58.9,29.45,WSW,248,4.7,10.5,67,0.00,,,0.00,WUHU216HW,2013-04-19 15:13:00,
2013-04-19 11:18:00,70.6,59.5,29.45,West,270,2.5,13.4,68,0.00,,,0.00,WUHU216HW,2013-04-19 15:18:00,
2013-04-19 11:23:00,70.6,59.1,29.44,SSW,203,3.6,13.4,67,0.00,,,0.00,WUHU216HW,2013-04-19 15:23:00,
2013-04-19 11:29:00,70.0,58.5,29.44,SW,225,3.8,9.8,67,0.00,,,0.00,WUHU216HW,2013-04-19 15:29:00,
2013-04-19 11:34:00,69.7,59.1,29.43,South,180,8.5,8.5,69,0.00,,,0.00,WUHU216HW,2013-04-19 15:34:00,
2013-04-19 11:39:00,69.5,58.9,29.43,WSW,248,1.3,16.1,69,0.00,,,0.00,WUHU216HW,2013-04-19 15:39:00,
2013-04-19 11:44:00,69.8,58.8,29.42,South,180,2.2,16.1,68,0.00,,,0.00,WUHU216HW,2013-04-19 15:44:00,
2013-04-19 11:49:00,70.0,59.0,29.42,SW,225,5.6,11.2,68,0.00,,,0.00,WUHU216HW,2013-04-19 15:49:00,
2013-04-19 11:54:00,70.4,58.9,29.42,WSW,248,4.3,11.2,67,0.00,,,0.00,WUHU216HW,2013-04-19 15:54:00,
2013-04-19 11:59:00,70.6,59.5,29.42,WSW,248,1.8,9.2,68,0.00,,,0.00,WUHU216HW,2013-04-19 15:59:00,
2013-04-19 12:04:00,71.1,58.7,29.42,SW,225,9.4,12.5,65,0.00,,,0.00,WUHU216HW,2013-04-19 16:04:00,
2013-04-19 12:09:00,70.7,58.3,29.42,SW,225,2.9,12.5,65,0.00,,,0.00,WUHU216HW,2013-04-19 16:09:00,
2013-04-19 12:15:00,70.7,59.2,29.41,SW,225,3.4,11.2,67,0.00,,,0.00,WUHU216HW,2013-04-19 16:15:00,
2013-04-19 12:20:00,71.3,59.3,29.41,SSW,203,4.0,8.7,66,0.00,,,0.00,WUHU216HW,2013-04-19 16:20:00,
2013-04-19 12:25:00,71.8,60.3,29.41,South,180,2.9,8.7,67,0.00,,,0.00,WUHU216HW,2013-04-19 16:25:00,
2013-04-19 12:30:00,71.8,59.9,29.40,WSW,248,6.3,12.8,66,0.00,,,0.00,WUHU216HW,2013-04-19 16:30:00,
2013-04-19 12:35:00,72.9,60.4,29.40,SW,225,4.9,13.2,65,0.00,,,0.00,WUHU216HW,2013-04-19 16:35:00,
2013-04-19 12:40:00,74.5,61.1,29.40,South,180,5.8,13.2,63,0.00,,,0.00,WUHU216HW,2013-04-19 16:40:00,
2013-04-19 12:45:00,75.1,60.8,29.40,SW,225,9.4,13.9,61,0.00,,,0.00,WUHU216HW,2013-04-19 16:45:00,
2013-04-19 12:50:00,75.4,59.7,29.40,SSW,203,14.8,14.8,58,0.00,,,0.00,WUHU216HW,2013-04-19 16:50:00,
2013-04-19 12:55:00,75.1,59.8,29.40,SSE,158,6.7,14.8,59,0.00,,,0.00,WUHU216HW,2013-04-19 16:55:00,
2013-04-19 13:00:00,74.9,60.1,29.39,SSE,158,3.4,14.8,60,0.00,,,0.00,WUHU216HW,2013-04-19 17:00:00,
2013-04-19 13:06:00,75.6,59.8,29.39,SSW,203,6.7,9.8,58,0.00,,,0.00,WUHU216HW,2013-04-19 17:06:00,
2013-04-19 13:11:00,75.1,59.8,29.39,SSW,203,14.5,14.5,59,0.00,,,0.00,WUHU216HW,2013-04-19 17:11:00,
2013-04-19 13:16:00,75.2,60.5,29.38,SSW,203,7.6,14.5,60,0.00,,,0.00,WUHU216HW,2013-04-19 17:16:00,
2013-04-19 13:21:00,76.0,60.1,29.38,West,270,4.5,9.2,58,0.00,,,0.00,WUHU216HW,2013-04-19 17:21:00,
2013-04-19 13:26:00,76.0,59.6,29.37,WSW,248,6.0,16.3,57,0.00,,,0.00,WUHU216HW,2013-04-19 17:26:00,
2013-04-19 13:31:00,76.0,59.6,29.37,SW,225,5.1,16.3,57,0.00,,,0.00,WUHU216HW,2013-04-19 17:31:00,
2013-04-19 13:36:00,75.2,59.5,29.37,SSW,203,14.3,14.3,58,0.00,,,0.00,WUHU216HW,2013-04-19 17:36:00,
2013-04-19 13:41:00,73.8,59.0,29.37,WSW,248,7.6,14.3,60,0.00,,,0.00,WUHU216HW,2013-04-19 17:41:00,
2013-04-19 13:47:00,73.4,59.1,29.37,SSE,158,7.6,14.3,61,0.00,,,0.00,WUHU216HW,2013-04-19 17:47:00,
2013-04-19 13:52:00,74.3,60.0,29.35,WSW,248,4.0,12.8,61,0.00,,,0.00,WUHU216HW,2013-04-19 17:52:00,
2013-04-19 13:57:00,76.0,60.1,29.34,WSW,248,10.3,13.2,58,0.00,,,0.00,WUHU216HW,2013-04-19 17:57:00,
2013-04-19 14:02:00,77.0,60.1,29.35,SSE,158,7.2,13.2,56,0.00,,,0.00,WUHU216HW,2013-04-19 18:02:00,
2013-04-19 14:07:00,76.3,59.4,29.35,SSE,158,6.7,15.0,56,0.00,,,0.00,WUHU216HW,2013-04-19 18:07:00,
2013-04-19 14:12:00,75.1,58.8,29.35,South,180,11.0,15.7,57,0.00,,,0.00,WUHU216HW,2013-04-19 18:12:00,
2013-04-19 14:17:00,74.7,59.0,29.35,SSE,158,13.4,15.7,58,0.00,,,0.00,WUHU216HW,2013-04-19 18:17:00,
2013-04-19 14:22:00,75.1,59.3,29.34,SSE,158,5.4,13.4,58,0.00,,,0.00,WUHU216HW,2013-04-19 18:22:00,
2013-04-19 14:27:00,75.6,59.8,29.34,South,180,6.5,13.4,58,0.00,,,0.00,WUHU216HW,2013-04-19 18:27:00,
2013-04-19 14:33:00,76.7,59.8,29.34,WSW,248,3.6,13.4,56,0.00,,,0.00,WUHU216HW,2013-04-19 18:33:00,
2013-04-19 14:38:00,77.0,60.6,29.33,SW,225,6.0,12.1,57,0.00,,,0.00,WUHU216HW,2013-04-19 18:38:00,
2013-04-19 14:43:00,76.7,59.8,29.33,SSW,203,7.2,13.4,56,0.00,,,0.00,WUHU216HW,2013-04-19 18:43:00,
2013-04-19 14:48:00,75.4,59.7,29.33,WNW,293,5.1,13.4,58,0.00,,,0.00,WUHU216HW,2013-04-19 18:48:00,
2013-04-19 14:53:00,74.5,59.2,29.33,SSE,158,9.4,16.8,59,0.00,,,0.00,WUHU216HW,2013-04-19 18:53:00,
2013-04-19 14:58:00,73.8,59.0,29.32,South,180,5.8,16.8,60,0.00,,,0.00,WUHU216HW,2013-04-19 18:58:00,
2013-04-19 15:03:00,73.8,59.5,29.33,SW,225,2.7,11.6,61,0.00,,,0.00,WUHU216HW,2013-04-19 19:03:00,
2013-04-19 15:08:00,73.8,59.5,29.32,SSE,158,10.3,12.1,61,0.00,,,0.00,WUHU216HW,2013-04-19 19:08:00,
2013-04-19 15:13:00,73.4,59.1,29.32,South,180,7.4,18.6,61,0.00,,,0.00,WUHU216HW,2013-04-19 19:13:00,
2013-04-19 15:18:00,73.1,59.2,29.32,SW,225,9.2,18.6,62,0.00,,,0.00,WUHU216HW,2013-04-19 19:18:00,
2013-04-19 15:23:00,73.3,59.9,29.32,SSE,158,2.5,13.4,63,0.00,,,0.00,WUHU216HW,2013-04-19 19:23:00,
2013-04-19 15:29:00,73.1,59.7,29.32,WSW,248,8.5,12.1,63,0.00,,,0.00,WUHU216HW,2013-04-19 19:29:00,
2013-04-19 15:34:00,73.4,60.0,29.32,SW,225,6.0,12.1,63,0.00,,,0.00,WUHU216HW,2013-04-19 19:34:00,
2013-04-19 15:39:00,73.4,60.5,29.31,West,270,5.1,16.6,64,0.00,,,0.00,WUHU216HW,2013-04-19 19:39:00,
2013-04-19 15:44:00,73.1,61.0,29.32,West,270,8.1,16.6,66,0.00,,,0.00,WUHU216HW,2013-04-19 19:44:00,
2013-04-19 15:49:00,72.5,60.9,29.32,SSW,203,11.4,16.3,67,0.00,,,0.00,WUHU216HW,2013-04-19 19:49:00,
2013-04-19 15:54:00,71.8,60.7,29.32,SSW,203,7.6,12.8,68,0.00,,,0.00,WUHU216HW,2013-04-19 19:54:00,
2013-04-19 15:59:00,70.9,60.7,29.32,ESE,113,2.9,13.2,70,0.00,,,0.00,WUHU216HW,2013-04-19 19:59:00,
2013-04-19 16:04:00,70.0,61.3,29.32,South,180,6.7,13.2,74,0.00,,,0.00,WUHU216HW,2013-04-19 20:04:00,
2013-04-19 16:09:00,68.9,61.4,29.31,SSW,203,6.5,10.3,77,0.00,,,0.00,WUHU216HW,2013-04-19 20:09:00,
2013-04-19 16:14:00,68.2,61.1,29.31,SW,225,4.3,11.9,78,0.00,,,0.00,WUHU216HW,2013-04-19 20:14:00,
2013-04-19 16:19:00,68.4,62.1,29.31,SSW,203,7.2,11.9,80,0.00,,,0.00,WUHU216HW,2013-04-19 20:19:00,
2013-04-19 16:24:00,68.6,61.5,29.30,SW,225,2.5,7.2,78,0.00,,,0.00,WUHU216HW,2013-04-19 20:24:00,
2013-04-19 16:29:00,68.6,61.1,29.30,SSW,203,2.7,10.1,77,0.00,,,0.00,WUHU216HW,2013-04-19 20:29:00,
2013-04-19 16:35:00,68.6,61.5,29.29,SW,225,5.6,10.1,78,0.00,,,0.00,WUHU216HW,2013-04-19 20:35:00,
2013-04-19 16:40:00,68.4,61.3,29.29,SSW,203,2.2,11.0,78,0.00,,,0.00,WUHU216HW,2013-04-19 20:40:00,
2013-04-19 16:45:00,68.2,61.1,29.29,WSW,248,1.8,11.0,78,0.00,,,0.00,WUHU216HW,2013-04-19 20:45:00,
2013-04-19 16:50:00,68.4,61.3,29.29,South,180,8.7,9.8,78,0.00,,,0.00,WUHU216HW,2013-04-19 20:50:00,
2013-04-19 16:55:00,68.4,61.3,29.29,SSW,203,5.4,10.7,78,0.00,,,0.00,WUHU216HW,2013-04-19 20:55:00,
2013-04-19 17:00:00,68.2,61.1,29.29,SSW,203,6.3,11.0,78,0.00,,,0.00,WUHU216HW,2013-04-19 21:00:00,
2013-04-19 17:05:00,68.0,61.0,29.29,WSW,248,7.6,11.0,78,0.00,,,0.00,WUHU216HW,2013-04-19 21:05:00,
2013-04-19 17:10:00,67.9,61.2,29.29,WSW,248,6.5,11.0,79,0.00,,,0.00,WUHU216HW,2013-04-19 21:10:00,
2013-04-19 17:16:00,67.7,61.4,29.28,South,180,12.5,12.5,80,0.00,,,0.00,WUHU216HW,2013-04-19 21:16:00,
2013-04-19 17:21:00,67.7,61.4,29.27,WNW,293,3.4,12.5,80,0.00,,,0.00,WUHU216HW,2013-04-19 21:21:00,
2013-04-19 17:26:00,67.7,61.4,29.27,SSW,203,11.0,11.4,80,0.00,,,0.00,WUHU216HW,2013-04-19 21:26:00,
2013-04-19 17:31:00,67.7,61.4,29.27,WSW,248,4.9,11.4,80,0.00,,,0.00,WUHU216HW,2013-04-19 21:31:00,
2013-04-19 17:36:00,67.5,61.2,29.27,South,180,7.8,8.1,80,0.00,,,0.00,WUHU216HW,2013-04-19 21:36:00,
2013-04-19 17:41:00,67.3,61.0,29.27,SSE,158,4.7,13.4,80,0.00,,,0.00,WUHU216HW,2013-04-19 21:41:00,
2013-04-19 17:46:00,67.1,61.2,29.26,SSW,203,7.6,13.4,81,0.00,,,0.00,WUHU216HW,2013-04-19 21:46:00,
2013-04-19 17:51:00,67.0,61.3,29.26,SW,225,4.9,12.1,82,0.00,,,0.00,WUHU216HW,2013-04-19 21:51:00,
2013-04-19 17:56:00,67.0,61.3,29.25,SSE,158,2.0,12.1,82,0.00,,,0.00,WUHU216HW,2013-04-19 21:56:00,
2013-04-19 18:01:00,66.8,61.5,29.25,SW,225,7.8,11.6,83,0.00,,,0.00,WUHU216HW,2013-04-19 22:01:00,
2013-04-19 18:07:00,66.6,61.3,29.25,SSW,203,10.5,10.5,83,0.00,,,0.00,WUHU216HW,2013-04-19 22:07:00,
2013-04-19 18:12:00,66.2,61.2,29.25,South,180,5.6,10.5,84,0.00,,,0.00,WUHU216HW,2013-04-19 22:12:00,
2013-04-19 18:17:00,66.1,61.0,29.25,SW,225,9.2,14.8,84,0.00,,,0.00,WUHU216HW,2013-04-19 22:17:00,
2013-04-19 18:22:00,65.9,60.9,29.25,SSW,203,1.3,14.8,84,0.00,,,0.00,WUHU216HW,2013-04-19 22:22:00,
2013-04-19 18:27:00,65.9,61.2,29.25,South,180,4.0,13.2,85,0.00,,,0.00,WUHU216HW,2013-04-19 22:27:00,
2013-04-19 18:32:00,65.9,61.2,29.25,SSE,158,4.7,14.8,85,0.00,,,0.00,WUHU216HW,2013-04-19 22:32:00,
2013-04-19 18:37:00,65.9,61.6,29.25,SSW,203,9.2,16.3,86,0.00,,,0.00,WUHU216HW,2013-04-19 22:37:00,
2013-04-19 18:42:00,65.7,61.4,29.25,WSW,248,3.6,16.3,86,0.00,,,0.00,WUHU216HW,2013-04-19 22:42:00,
2013-04-19 18:47:00,65.7,61.0,29.24,SSW,203,6.0,13.4,85,0.00,,,0.00,WUHU216HW,2013-04-19 22:47:00,
2013-04-19 18:52:00,65.5,61.2,29.24,SSW,203,5.4,13.4,86,0.00,,,0.00,WUHU216HW,2013-04-19 22:52:00,
2013-04-19 18:58:00,65.5,61.2,29.23,SW,225,7.8,13.2,86,0.00,,,0.00,WUHU216HW,2013-04-19 22:58:00,
2013-04-19 19:03:00,65.5,61.2,29.24,SSW,203,4.3,13.2,86,0.00,,,0.00,WUHU216HW,2013-04-19 23:03:00,
2013-04-19 19:08:00,65.3,61.0,29.24,SSW,203,2.5,10.1,86,0.00,,,0.00,WUHU216HW,2013-04-19 23:08:00,
2013-04-19 19:13:00,65.2,60.8,29.24,SW,225,4.5,13.2,86,0.00,,,0.00,WUHU216HW,2013-04-19 23:13:00,
2013-04-19 19:18:00,65.2,60.8,29.24,South,180,5.6,13.2,86,0.00,,,0.00,WUHU216HW,2013-04-19 23:18:00,
2013-04-19 19:23:00,65.2,60.6,29.24,SW,225,5.6,14.3,85,0.00,,,0.00,WUHU216HW,2013-04-19 23:23:00,
2013-04-19 19:28:00,65.2,60.6,29.24,SW,225,2.9,14.8,85,0.00,,,0.00,WUHU216HW,2013-04-19 23:28:00,
2013-04-19 19:33:00,65.2,60.6,29.24,SW,225,5.1,14.8,85,0.00,,,0.00,WUHU216HW,2013-04-19 23:33:00,
2013-04-19 19:38:00,65.0,60.4,29.24,South,180,8.3,12.1,85,0.00,,,0.00,WUHU216HW,2013-04-19 23:38:00,
2013-04-19 19:44:00,65.0,60.7,29.24,SSW,203,8.5,11.9,86,0.00,,,0.00,WUHU216HW,2013-04-19 23:44:00,
2013-04-19 19:49:00,65.0,60.4,29.24,SSW,203,6.9,11.4,85,0.00,,,0.00,WUHU216HW,2013-04-19 23:49:00,
2013-04-19 19:54:00,64.8,60.2,29.24,SW,225,10.7,12.8,85,0.00,,,0.00,WUHU216HW,2013-04-19 23:54:00,
2013-04-19 19:59:00,65.0,60.4,29.24,SW,225,5.6,12.8,85,0.00,,,0.00,WUHU216HW,2013-04-19 23:59:00,
2013-04-19 20:04:00,65.0,60.4,29.24,SSW,203,4.0,11.6,85,0.00,,,0.00,WUHU216HW,2013-04-20 00:04:00,
2013-04-19 20:09:00,64.8,60.2,29.24,West,270,4.0,14.3,85,0.00,,,0.00,WUHU216HW,2013-04-20 00:09:00,
2013-04-19 20:14:00,64.8,60.2,29.24,West,270,3.4,14.3,85,0.00,,,0.00,WUHU216HW,2013-04-20 00:14:00,
2013-04-19 20:19:00,64.8,60.2,29.24,SSW,203,5.1,9.2,85,0.00,,,0.00,WUHU216HW,2013-04-20 00:19:00,
2013-04-19 20:24:00,64.8,60.2,29.24,SSW,203,9.2,15.0,85,0.00,,,0.00,WUHU216HW,2013-04-20 00:24:00,
2013-04-19 20:29:00,64.8,60.2,29.24,South,180,6.3,15.0,85,0.00,,,0.00,WUHU216HW,2013-04-20 00:29:00,
2013-04-19 20:34:00,64.8,60.2,29.23,SSW,203,9.4,15.0,85,0.00,,,0.00,WUHU216HW,2013-04-20 00:34:00,
2013-04-19 20:39:00,64.8,60.2,29.23,SSW,203,4.9,12.8,85,0.00,,,0.00,WUHU216HW,2013-04-20 00:39:00,
2013-04-19 20:44:00,64.8,60.6,29.22,SW,225,9.2,11.4,86,0.00,,,0.00,WUHU216HW,2013-04-20 00:44:00,
2013-04-19 20:49:00,64.8,60.6,29.22,WSW,248,10.3,12.3,86,0.00,,,0.00,WUHU216HW,2013-04-20 00:49:00,
2013-04-19 20:54:00,64.6,60.0,29.22,SSW,203,2.5,12.3,85,0.00,,,0.00,WUHU216HW,2013-04-20 00:54:00,
2013-04-19 21:00:00,64.4,59.9,29.22,SSW,203,6.3,13.6,85,0.00,,,0.00,WUHU216HW,2013-04-20 01:00:00,
2013-04-19 21:05:00,64.4,59.9,29.22,SSW,203,8.3,13.6,85,0.00,,,0.00,WUHU216HW,2013-04-20 01:05:00,
2013-04-19 21:10:00,64.3,60.0,29.22,South,180,6.7,12.1,86,0.00,,,0.00,WUHU216HW,2013-04-20 01:10:00,
2013-04-19 21:15:00,64.3,60.0,29.22,SSW,203,3.8,12.5,86,0.00,,,0.00,WUHU216HW,2013-04-20 01:15:00,
2013-04-19 21:20:00,64.1,59.9,29.22,SSW,203,3.4,12.5,86,0.00,,,0.00,WUHU216HW,2013-04-20 01:20:00,
2013-04-19 21:25:00,64.1,60.2,29.22,South,180,7.8,9.2,87,0.00,,,0.00,WUHU216HW,2013-04-20 01:25:00,
2013-04-19 21:30:00,64.1,60.2,29.23,South,180,7.2,9.4,87,0.00,,,0.00,WUHU216HW,2013-04-20 01:30:00,
2013-04-19 21:35:00,64.1,60.2,29.22,WSW,248,4.7,9.4,87,0.00,,,0.00,WUHU216HW,2013-04-20 01:35:00,
2013-04-19 21:40:00,63.9,60.0,29.22,WSW,248,5.6,9.4,87,0.00,,,0.00,WUHU216HW,2013-04-20 01:40:00,
2013-04-19 21:45:00,63.9,60.0,29.22,SSE,158,8.9,9.6,87,0.00,,,0.00,WUHU216HW,2013-04-20 01:45:00,
2013-04-19 21:51:00,63.9,60.0,29.22,SSW,203,6.3,11.0,87,0.00,,,0.00,WUHU216HW,2013-04-20 01:51:00,
2013-04-19 21:56:00,63.9,60.0,29.21,SSW,203,7.8,11.0,87,0.00,,,0.00,WUHU216HW,2013-04-20 01:56:00,
2013-04-19 22:01:00,63.9,60.3,29.21,South,180,8.9,11.0,88,0.00,,,0.00,WUHU216HW,2013-04-20 02:01:00,
2013-04-19 22:06:00,63.9,60.3,29.21,South,180,8.9,11.4,88,0.00,,,0.00,WUHU216HW,2013-04-20 02:06:00,
2013-04-19 22:11:00,64.1,60.5,29.21,SSW,203,6.3,11.4,88,0.00,,,0.00,WUHU216HW,2013-04-20 02:11:00,
2013-04-19 22:16:00,64.1,60.5,29.21,SSW,203,11.0,11.0,88,0.00,,,0.00,WUHU216HW,2013-04-20 02:16:00,
2013-04-19 22:21:00,64.3,60.4,29.20,South,180,4.3,11.4,87,0.00,,,0.00,WUHU216HW,2013-04-20 02:21:00,
2013-04-19 22:26:00,64.4,60.6,29.19,SSE,158,5.4,11.4,87,0.00,,,0.00,WUHU216HW,2013-04-20 02:26:00,
2013-04-19 22:31:00,64.4,60.6,29.19,South,180,5.1,10.1,87,0.00,,,0.00,WUHU216HW,2013-04-20 02:31:00,
2013-04-19 22:36:00,64.3,60.7,29.19,WSW,248,4.7,12.1,88,0.00,,,0.00,WUHU216HW,2013-04-20 02:36:00,
2013-04-19 22:42:00,64.3,60.7,29.19,South,180,4.0,12.1,88,0.00,,,0.00,WUHU216HW,2013-04-20 02:42:00,
2013-04-19 22:47:00,64.3,61.0,29.19,SSW,203,4.3,8.3,89,0.00,,,0.00,WUHU216HW,2013-04-20 02:47:00,
2013-04-19 22:52:00,64.4,60.8,29.19,SSW,203,7.6,8.7,88,0.00,,,0.00,WUHU216HW,2013-04-20 02:52:00,
2013-04-19 22:57:00,64.4,60.8,29.20,SSE,158,4.9,9.6,88,0.00,,,0.00,WUHU216HW,2013-04-20 02:57:00,
2013-04-19 23:02:00,64.6,61.0,29.19,SW,225,4.3,12.5,88,0.00,,,0.00,WUHU216HW,2013-04-20 03:02:00,
2013-04-19 23:07:00,64.8,61.2,29.19,West,270,5.8,12.5,88,0.00,,,0.00,WUHU216HW,2013-04-20 03:07:00,
2013-04-19 23:12:00,65.0,61.0,29.18,SW,225,4.0,9.8,87,0.00,,,0.00,WUHU216HW,2013-04-20 03:12:00,
2013-04-19 23:18:00,65.0,61.0,29.18,NNW,338,4.5,9.2,87,0.00,,,0.00,WUHU216HW,2013-04-20 03:18:00,
2013-04-19 23:23:00,65.0,61.0,29.18,SSW,203,2.7,9.8,87,0.00,,,0.00,WUHU216HW,2013-04-20 03:23:00,
2013-04-19 23:28:00,65.2,61.2,29.18,SSW,203,7.6,12.8,87,0.00,,,0.00,WUHU216HW,2013-04-20 03:28:00,
2013-04-19 23:33:00,65.2,61.6,29.17,SW,225,5.4,12.8,88,0.00,,,0.00,WUHU216HW,2013-04-20 03:33:00,
2013-04-19 23:38:00,65.2,61.6,29.17,SW,225,7.2,11.6,88,0.00,,,0.00,WUHU216HW,2013-04-20 03:38:00,
2013-04-19 23:43:00,65.3,61.8,29.18,South,180,1.8,11.6,88,0.00,,,0.00,WUHU216HW,2013-04-20 03:43:00,
2013-04-19 23:48:00,65.3,61.8,29.17,SE,135,6.3,10.7,88,0.00,,,0.00,WUHU216HW,2013-04-20 03:48:00,
2013-04-19 23:53:00,65.5,61.8,29.17,SSW,203,3.4,10.7,88,0.00,,,0.00,WUHU216HW,2013-04-20 03:53:00,
2013-04-19 23:59:00,65.5,61.8,29.18,SW,225,8.9,10.3,88,0.00,,,0.00,WUHU216HW,2013-04-20 03:59:00,